Location: Muenchen
(48.1800°N, 11.5800°E)
Time: 05:39:02
(UTC+01:00)

ISS - All Passes

Search period start: 01 November 2014 00:00
Search period end: 11 November 2014 00:00
Orbit: 412 x 417 km, 51.6° (Epoch: 01 November)

Date Brightness Start Highest point End Pass type
(mag) Time Alt. Az. Time Alt. Az. Time Alt. Az.
01 Nov - 08:43:25 10° SE 08:43:50 10° SE 08:44:16 10° SE daylight
01 Nov - 10:16:40 10° SW 10:19:55 54° SSE 10:23:11 10° ENE daylight
01 Nov - 11:53:24 10° W 11:56:40 50° N 11:59:56 10° ENE daylight
01 Nov - 13:30:26 10° WNW 13:33:42 49° N 13:36:58 10° E daylight
01 Nov - 15:07:10 10° WNW 15:10:28 57° SSW 15:13:45 10° SE daylight
01 Nov - 16:45:36 10° WSW 16:46:34 11° SW 16:47:31 10° SSW daylight
02 Nov - 09:27:45 10° SSW 09:30:48 35° SE 09:33:53 10° ENE daylight
02 Nov - 11:04:06 10° W 11:07:24 61° NNW 11:10:43 10° ENE daylight
02 Nov - 12:41:11 10° WNW 12:44:24 45° N 12:47:38 10° E daylight
02 Nov - 14:17:56 10° WNW 14:21:17 84° SSW 14:24:38 10° ESE daylight
02 Nov - 15:55:17 10° W 15:57:35 18° SW 15:59:53 10° S daylight
03 Nov - 08:39:02 10° SSW 08:41:43 23° SE 08:44:24 10° E daylight
03 Nov - 10:14:48 10° WSW 10:18:07 80° NNW 10:21:28 10° ENE daylight
03 Nov - 11:51:51 10° WNW 11:55:04 44° N 11:58:17 10° ENE daylight
03 Nov - 13:28:42 10° WNW 13:32:02 72° NNE 13:35:22 10° ESE daylight
03 Nov - 15:05:38 10° W 15:08:31 27° SW 15:11:23 10° SSE daylight
04 Nov - 07:50:43 10° S 07:52:38 15° SE 07:54:34 10° E daylight
04 Nov - 09:25:32 10° WSW 09:28:51 73° SSE 09:32:11 10° ENE daylight
04 Nov - 11:02:28 10° W 11:05:41 46° N 11:08:56 10° ENE daylight
04 Nov - 12:39:25 10° WNW 12:42:42 56° NNE 12:46:00 10° E daylight
04 Nov - 14:16:11 10° WNW 14:19:21 41° SSW 14:22:31 10° SE daylight
05 Nov - 08:36:23 10° SW 08:39:35 48° SSE 08:42:49 10° ENE daylight
05 Nov - 10:13:02 10° W 10:16:18 52° NNW 10:19:34 10° ENE daylight
05 Nov - 11:50:04 10° WNW 11:53:19 48° N 11:56:34 10° E daylight
05 Nov - 13:26:48 10° WNW 13:30:06 63° SSW 13:33:24 10° SE daylight
05 Nov - 15:04:46 10° WSW 15:06:15 12° SW 15:07:43 10° SSW daylight
06 Nov - 07:47:22 10° SSW 07:50:21 31° SE 07:53:20 10° E daylight
06 Nov - 09:23:35 10° W 09:26:53 65° NNW 09:30:12 10° ENE daylight
06 Nov - 11:00:39 10° WNW 11:03:52 44° N 11:07:05 10° ENE daylight
06 Nov - 12:37:25 10° WNW 12:40:46 89° NNE 12:44:06 10° ESE daylight
06 Nov - 14:14:37 10° W 14:17:07 20° SW 14:19:35 10° S daylight
07 Nov - 06:58:36 10° S 07:01:07 20° SE 07:03:39 10° E daylight
07 Nov - 08:34:09 10° WSW 08:37:28 87° NNW 08:40:49 10° ENE daylight
07 Nov - 10:11:10 10° WNW 10:14:23 44° N 10:17:36 10° ENE daylight
07 Nov - 11:48:02 10° WNW 11:51:21 67° NNE 11:54:40 10° ESE daylight
07 Nov - 13:24:54 10° W 13:27:53 30° SW 13:30:50 10° SSE daylight
08 Nov - 06:10:20 10° SSE 06:11:55 13° SE 06:13:30 10° ESE visible
08 Nov - 07:44:46 10° SW 07:48:04 66° SSE 07:51:22 10° ENE daylight
08 Nov - 09:21:37 10° W 09:24:51 47° N 09:28:06 10° ENE daylight
08 Nov - 10:58:36 10° WNW 11:01:52 53° NNE 11:05:09 10° E daylight
08 Nov - 12:35:20 10° WNW 12:38:33 46° SSW 12:41:45 10° SE daylight
09 Nov - 06:55:31 10° SW 06:58:40 43° SSE 07:01:51 10° ENE daylight
09 Nov - 08:32:02 10° W 08:35:19 55° NNW 08:38:36 10° ENE daylight
09 Nov - 10:09:05 10° WNW 10:12:19 46° N 10:15:33 10° E daylight
09 Nov - 11:45:49 10° WNW 11:49:08 71° SSW 11:52:27 10° ESE daylight
09 Nov - 13:23:28 10° WSW 13:25:20 14° SW 13:27:11 10° S daylight
10 Nov - 06:06:25 10° SSW 06:09:17 28° SE 06:12:11 10° E visible
10 Nov - 07:42:27 10° WSW 07:45:46 70° NNW 07:49:06 10° ENE daylight
10 Nov - 09:19:31 10° WNW 09:22:43 43° N 09:25:56 10° ENE daylight
10 Nov - 10:56:18 10° WNW 10:59:38 82° NNE 11:02:58 10° ESE daylight
10 Nov - 12:33:22 10° W 12:36:01 22° SW 12:38:40 10° SSE daylight
